[[{"header":{"parameterUnit":"m.s-1","parameterCategory":1,"la1":30.2991,"la2":30.254,"lo1":-89.0895,"lo2":-89.0444,"dy":0.0017,"dx":0.0017,"nx":28,"ny":28,"refTime":"2024-05-05T09:00:00:Z","depth":0,"parameterNumber":2,"parameterNumberName":"U-component_of_WINDS"},"data":[0,0,0,0,0,0,0,0,0,0,0,0,0,0,0,0,0,0,0,0,0,0,0,0,0,0,0,0,0,0,0,0,0,0,0,0,0,0,0,0,0,0,0,0,0,0,0,0,0,0,0,0,0,0,0,0,0,0,-4.5045,-4.5046,0,-4.5122,-4.5123,-4.5124,-4.5054,-4.5051,-4.5048,-4.5046,-4.5123,-4.5127,-4.5132,0,0,0,0,0,0,0,0,0,0,0,0,0,-4.4836,-4.484,-4.5045,-4.5046,-4.5047,-4.5122,-4.5123,-4.5124,-4.5055,-4.5051,-4.5048,-4.5044,-4.5121,-4.5127,-4.5132,0,0,0,0,0,0,0,0,0,0,0,0,0,-4.4921,-4.4841,-4.5045,-4.5021,-4.502,-4.5122,-4.5123,-4.5124,-4.5055,-4.5051,-4.5047,-4.5043,-4.5119,-4.5126,-4.5133,-4.5262,0,0,-4.5155,-4.5158,0,0,0,0,0,0,0,0,-4.4916,-4.4929,-4.5024,-4.5023,-4.5022,-4.5074,-4.5077,-4.517,-4.5056,-4.5042,-4.5046,-4.5041,-4.511,-4.5118,-4.5141,-4.5265,-4.5268,-4.5155,-4.516,-4.5163,-4.5165,0,0,0,0,0,0,0,-4.4911,-4.4925,-4.5075,-4.5025,-4.5024,-4.5006,-4.5014,-4.5095,-4.5099,-4.5043,-4.5038,-4.5048,-4.5109,-4.5135,-4.5143,-4.527,-4.5155,-4.5161,-4.5166,-4.5168,-4.5502,-4.5507,0,0,0,0,0,0,-4.4907,-4.4921,-4.5073,-4.5078,-4.4958,-4.5014,-4.5022,-4.5062,-4.5098,-4.5099,-4.5052,-4.5045,-4.5125,-4.5134,-4.5145,-4.5297,-4.5163,-4.5169,-4.5173,-4.5498,-4.5503,-4.5508,0,0,0,0,0,0,-4.4903,-4.4922,-4.507,-4.4998,-4.5016,-4.5022,-4.5067,-4.5065,-4.5091,-4.5104,-4.5104,-4.5078,-4.5122,-4.5135,-4.5233,-4.5299,-4.5172,-4.5179,-4.5492,-4.5499,-4.5506,-4.5604,0,0,0,0,0,0,-4.4898,-4.4921,-4.497,-4.5,-4.502,-4.5158,-4.5071,-4.507,-4.5104,-4.5095,-4.5129,-4.513,-4.5119,-4.5223,-4.524,-4.5306,-4.5184,-4.5486,-4.5495,-4.5504,-4.5594,-4.5613,-4.5629,0,0,0,0,0,-4.489,-4.4994,-4.4973,-4.4991,-4.5082,-4.5162,-4.5173,-4.5159,-4.511,-4.5159,-4.5167,-4.5129,-4.5289,-4.5234,-4.5252,-4.5322,-4.5482,-4.5493,-4.5503,-4.5587,-4.5609,-4.5628,0,0,0,0,0,0,-4.4971,-4.4997,-4.4974,-4.5091,-4.5125,-4.515,-4.5211,-4.5183,-4.5231,-4.5221,-4.5201,-4.5209,-4.5313,-4.5327,-4.5265,-4.5448,-4.5378,-4.5392,-4.5435,-4.5456,-4.5473,-4.5468,-4.519,0,0,0,0,0,-4.5002,-4.5066,-4.5085,-4.5186,-4.5204,-4.5205,-4.524,-4.5226,-4.526,-4.5274,-4.5289,-4.5323,-4.5381,-4.5419,-4.5473,-4.5596,-4.5602,-4.5653,-4.567,-4.5684,-4.5697,-4.5763,-4.5786,-4.5543,-4.5543,-4.5542,0,0,-4.5068,-4.509,-4.5131,-4.5203,-4.5228,-4.5293,-4.5218,-4.529,-4.5339,-4.5285,-4.5378,-4.5391,-4.5427,-4.5539,-4.5588,-4.5553,-4.5766,-4.5698,-4.5709,-4.5714,-4.5776,-4.5799,-4.582,-4.555,-4.5549,-4.5547,0,0,-4.5221,-4.5244,-4.5331,-4.5357,-4.5396,-4.5396,-4.5417,-4.5446,-4.5453,-4.5547,-4.5507,-4.5564,-4.5664,-4.5692,-4.5719,-4.5883,-4.585,-4.5901,-4.5991,-4.6055,-4.6074,-4.6091,-4.6149,-4.617,-4.5914,-4.5914,-4.5914,0,-4.5297,-4.5395,-4.5379,-4.5455,-4.5487,-4.5442,-4.5529,-4.5555,-4.5609,-4.5632,-4.5593,-4.5718,-4.5739,-4.5856,-4.5896,-4.5919,-4.5942,-4.5897,-4.6073,-4.609,-4.6105,-4.616,-4.6182,-4.592,-4.5919,-4.5919,-4.5918,0,-4.5487,-4.5555,-4.5621,-4.5675,-4.5715,-4.5796,-4.5791,-4.5833,-4.5816,-4.582,-4.5916,-4.594,-4.5998,-4.6025,-4.6009,-4.614,-4.6117,-4.6076,-4.6005,-4.6134,-4.6186,-4.6207,-4.5928,-4.5926,-4.5924,-4.5923,0,0,-4.5692,-4.5737,-4.5761,-4.5785,-4.5824,-4.5877,-4.5956,-4.6013,-4.605,-4.6088,-4.6154,-4.624,-4.6202,-4.6232,-4.6219,-4.6275,-4.6403,-4.6227,-4.6227,-4.6259,-4.6549,-4.658,-4.6605,-4.6382,-4.6386,-4.6389,-4.6546,0,-4.5847,-4.5985,-4.5972,-4.6103,-4.6166,-4.6124,-4.6192,-4.6224,-4.623,-4.6283,-4.6289,-4.635,-4.6296,-4.6314,-4.6368,-4.6376,-4.6461,-4.6365,-4.6442,-4.6445,-4.6434,-4.6631,-4.6665,-4.6811,-4.6566,-4.6569,-4.6571,0,-4.6045,-4.6092,-4.6229,-4.6259,-4.6285,-4.6347,-4.6398,-4.645,-4.6485,-4.6485,-4.652,-4.6497,-4.6575,-4.6503,-4.6611,-4.6546,-4.6576,-4.6585,-4.659,-4.6597,-4.6516,-4.6643,-4.6858,-4.688,-4.6603,-4.6601,-4.6598,0,-4.6182,-4.6278,-4.6373,-4.6395,-4.6432,-4.6476,-4.6494,-4.6524,-4.6559,-4.6604,-4.6627,-4.668,-4.6709,-4.6751,-4.6742,-4.669,-4.6852,-4.6779,-4.6854,-4.6855,-4.689,-4.6888,-4.7113,-4.691,-4.691,-4.691,-4.6909,0,-4.6355,-4.6441,-4.6435,-4.6493,-4.6587,-4.6572,-4.6666,-4.6677,-4.6705,-4.6764,-4.673,-4.6787,-4.6772,-4.6827,-4.6821,-4.6911,-4.6925,-4.6927,-4.6924,-4.693,-4.693,-4.695,-4.6939,-4.6915,-4.6914,-4.6913,-4.6912,0,-4.6524,-4.6523,-4.6623,-4.665,-4.6659,-4.6728,-4.675,-4.6805,-4.6808,-4.6883,-4.69,-4.6905,-4.6968,-4.6964,-4.7035,-4.7031,-4.7143,-4.7128,-4.7132,-4.7128,-4.7204,-4.7197,-4.7449,-4.7482,-4.7258,-4.726,-4.7262,0,-4.6635,-4.67,-4.6734,-4.6771,-4.6792,-4.6853,-4.6889,-4.6876,-4.6915,-4.6959,-4.7008,-4.7069,-4.7117,-4.722,-4.7229,-4.7284,-4.727,-4.7355,-4.7278,-4.7282,-4.7271,-4.7268,-4.7274,-4.737,-4.7372,-4.7374,-4.7376,0,-4.6832,-4.6828,-4.6882,-4.6936,-4.698,-4.7022,-4.7059,-4.7092,-4.7083,-4.7128,-4.7193,-4.723,-4.7303,-4.7364,-4.7416,-4.7432,-4.7403,-4.74,-4.742,-4.7427,-4.7427,-4.7428,-4.7173,-4.7394,-4.7392,-4.7391,-4.739,-4.7389,-4.6975,-4.7031,-4.7064,-4.7124,-4.7152,-4.7188,-4.7241,-4.725,-4.7305,-4.7364,-4.7352,-4.7426,-4.7457,-4.7524,-4.7546,-4.7602,-4.7572,-4.7601,-4.7609,-4.7616,-4.7625,-4.7418,-4.7612,-4.7611,-4.7611,-4.761,-4.761,0,-4.717,-4.719,-4.7246,-4.73,-4.7348,-4.7317,-4.7357,-4.7399,-4.7464,-4.7496,-4.7544,-4.7619,-4.7677,-4.7691,-4.7747,-4.7789,-4.7777,-4.7804,-4.7801,-4.7805,-4.7649,-4.7626,-4.7813,-4.7813,-4.7813,-4.7813,-4.7813,-4.7813,-4.7278,-4.7371,-4.7371,-4.7477,-4.7495,-4.7567,-4.7593,-4.7626,-4.7652,-4.7737,-4.7785,-4.7794,-4.7819,-4.7877,-4.7928,-4.7931,-4.7953,-4.7986,-4.7983,-4.7837,-4.7816,-4.7797,-4.7775,-4.7991,-4.7991,-4.8135,-4.8136,-4.8137]},{"header":{"parameterUnit":"m.s-1","parameterCategory":1,"la1":30.2991,"la2":30.254,"lo1":-89.0895,"lo2":-89.0444,"dy":0.0017,"dx":0.0017,"nx":28,"ny":28,"refTime":"2024-05-05T09:00:00:Z","depth":0,"parameterNumber":3,"parameterNumberName":"V-component_of_WINDS"},"data":[0,0,0,0,0,0,0,0,0,0,0,0,0,0,0,0,0,0,0,0,0,0,0,0,0,0,0,0,0,0,0,0,0,0,0,0,0,0,0,0,0,0,0,0,0,0,0,0,0,0,0,0,0,0,0,0,0,0,4.5437,4.544,0,4.5633,4.5635,4.5637,4.564,4.5637,4.5635,4.5632,4.5829,4.5836,4.5843,0,0,0,0,0,0,0,0,0,0,0,0,0,4.5064,4.5071,4.5437,4.544,4.5442,4.5633,4.5635,4.5638,4.564,4.5637,4.5634,4.5631,4.5826,4.5835,4.5844,0,0,0,0,0,0,0,0,0,0,0,0,0,4.524,4.5073,4.5437,4.5466,4.5471,4.5632,4.5635,4.5639,4.5641,4.5637,4.5633,4.563,4.5823,4.5834,4.5845,4.5989,0,0,4.588,4.5885,0,0,0,0,0,0,0,0,4.523,4.5253,4.546,4.5465,4.547,4.5608,4.5576,4.5756,4.5642,4.5576,4.5632,4.5628,4.5758,4.5774,4.5819,4.5998,4.6006,4.5881,4.5887,4.5892,4.5896,0,0,0,0,0,0,0,4.5218,4.5245,4.5514,4.5463,4.5469,4.5469,4.549,4.561,4.5685,4.5582,4.5582,4.5606,4.576,4.5808,4.5824,4.6009,4.588,4.589,4.5897,4.5902,4.6318,4.6322,0,0,0,0,0,0,4.52,4.5235,4.5508,4.552,4.5338,4.5479,4.5502,4.5567,4.5684,4.5698,4.5609,4.5605,4.5791,4.581,4.583,4.6008,4.5892,4.5903,4.5909,4.6314,4.6319,4.6324,0,0,0,0,0,0,4.5192,4.5224,4.55,4.5378,4.5413,4.5489,4.5563,4.5573,4.5621,4.5704,4.5718,4.5644,4.5789,4.5815,4.595,4.6015,4.5908,4.5918,4.6309,4.6316,4.6321,4.6362,0,0,0,0,0,0,4.5181,4.5221,4.5277,4.5379,4.542,4.5617,4.5567,4.558,4.5641,4.5639,4.5741,4.5754,4.5788,4.5933,4.5961,4.6028,4.5927,4.6303,4.6312,4.6319,4.6356,4.637,4.6381,0,0,0,0,0,4.5168,4.5279,4.528,4.5312,4.5491,4.5621,4.5644,4.5681,4.5646,4.5703,4.5757,4.5751,4.6003,4.5947,4.5979,4.605,4.6299,4.6309,4.6319,4.635,4.6367,4.6381,0,0,0,0,0,0,4.518,4.5293,4.5295,4.5442,4.5523,4.5621,4.5693,4.5698,4.5788,4.5781,4.5822,4.5846,4.5981,4.6029,4.5965,4.6196,4.6147,4.6164,4.616,4.6177,4.6189,4.6175,4.5936,0,0,0,0,0,4.52,4.5298,4.5391,4.5512,4.5552,4.5616,4.5674,4.5696,4.578,4.5814,4.5877,4.5958,4.6056,4.6119,4.6213,4.6363,4.6386,4.6428,4.644,4.6451,4.6464,4.6549,4.6569,4.6356,4.6356,4.6355,0,0,4.5242,4.5316,4.5374,4.5517,4.5581,4.5681,4.5644,4.575,4.5825,4.5829,4.5962,4.6012,4.6105,4.6249,4.6315,4.6293,4.6529,4.6463,4.647,4.6479,4.6561,4.6581,4.6599,4.6362,4.6361,4.636,0,0,4.537,4.5435,4.5545,4.5611,4.571,4.5753,4.5779,4.5879,4.5912,4.6047,4.6053,4.6141,4.6308,4.6375,4.6431,4.6588,4.6586,4.6617,4.6684,4.6766,4.6783,4.6798,4.6855,4.6875,4.663,4.6631,4.6631,0,4.5409,4.5561,4.56,4.5708,4.5771,4.5782,4.5893,4.5955,4.6079,4.6122,4.6096,4.6308,4.6371,4.6532,4.6571,4.6615,4.6647,4.6605,4.6778,4.6793,4.6808,4.6863,4.6884,4.6634,4.6633,4.6633,4.6633,0,4.5605,4.571,4.5786,4.5909,4.598,4.6089,4.6145,4.6213,4.6229,4.6274,4.6412,4.6489,4.66,4.664,4.6656,4.6804,4.6787,4.6769,4.672,4.6831,4.6883,4.6904,4.6638,4.6637,4.6636,4.6635,0,0,4.5744,4.5889,4.5917,4.5973,4.6085,4.6167,4.6277,4.6387,4.6445,4.6531,4.6625,4.6767,4.6752,4.6816,4.684,4.6912,4.7033,4.6885,4.6888,4.6911,4.7203,4.7216,4.724,4.7034,4.7038,4.7041,4.7196,0,4.5884,4.6082,4.6122,4.6292,4.6391,4.6404,4.65,4.6579,4.6625,4.6714,4.6764,4.6866,4.6837,4.6876,4.6948,4.7003,4.7093,4.6993,4.7121,4.7125,4.7098,4.7267,4.7281,4.7423,4.7216,4.722,4.7222,0,4.6074,4.6167,4.6348,4.645,4.6492,4.6578,4.6684,4.677,4.686,4.6888,4.6961,4.6978,4.7093,4.704,4.72,4.7131,4.7186,4.7222,4.7228,4.7241,4.718,4.7286,4.7469,4.7491,4.7255,4.7252,4.725,0,4.6159,4.6329,4.646,4.6508,4.6629,4.669,4.6743,4.6829,4.6894,4.6987,4.703,4.7133,4.719,4.7271,4.7316,4.7272,4.7473,4.7422,4.75,4.7499,4.754,4.7537,4.7736,4.7576,4.7575,4.7575,4.7574,0,4.6311,4.6422,4.6501,4.6581,4.6706,4.6751,4.6873,4.6925,4.7003,4.7094,4.7111,4.7196,4.7251,4.7343,4.7379,4.7507,4.7532,4.7558,4.7567,4.7557,4.7554,4.7594,4.7585,4.7581,4.7579,4.7578,4.7577,0,4.6426,4.6484,4.6628,4.6731,4.676,4.6848,4.6936,4.7015,4.7062,4.7178,4.7207,4.7281,4.7391,4.7444,4.758,4.7605,4.775,4.7751,4.772,4.7723,4.7798,4.779,4.8029,4.8063,4.7879,4.7881,4.7883,0,4.652,4.6606,4.672,4.6783,4.6839,4.6939,4.7007,4.7055,4.7124,4.7236,4.7301,4.7413,4.7505,4.7681,4.7746,4.7851,4.7856,4.7932,4.7871,4.786,4.7858,4.7853,4.7862,4.7943,4.7945,4.7946,4.7947,0,4.6681,4.6706,4.6803,4.6911,4.6991,4.7077,4.7162,4.7213,4.7275,4.7352,4.7467,4.7538,4.7679,4.779,4.7901,4.7955,4.7962,4.7966,4.799,4.7981,4.796,4.7974,4.775,4.796,4.7959,4.7958,4.7957,4.7957,4.6789,4.6867,4.696,4.7068,4.7138,4.7218,4.7298,4.7357,4.7453,4.7573,4.7596,4.7717,4.7808,4.7957,4.8015,4.8111,4.8093,4.8127,4.8136,4.8144,4.8148,4.7945,4.8131,4.8131,4.813,4.813,4.813,0,4.6952,4.7013,4.7112,4.7232,4.7318,4.7319,4.7414,4.7485,4.7593,4.7677,4.7768,4.7901,4.8009,4.8084,4.8194,4.8257,4.8263,4.8284,4.828,4.8293,4.8157,4.8126,4.8278,4.8278,4.8278,4.8278,4.8278,4.8277,4.7047,4.7179,4.7215,4.7383,4.7443,4.7564,4.7619,4.7693,4.7761,4.7909,4.8,4.8048,4.813,4.8247,4.8347,4.8366,4.8406,4.8428,4.8446,4.8318,4.8302,4.8287,4.8259,4.8436,4.8436,4.8575,4.8576,4.8577]}]]